User: anonymous   Login
Location: Kailua
(21.4020°N, 157.7390°W)
Time: 16:41:26
(UTC-10:00)
Language:

Cosmos 2221 Rocket - Orbit

View from above orbital plane
View from above orbital plane
View from above satellite
View from above satellite

Ground track
Ground track

The orbit data is extracted from the following two-line orbital elements,

1 22237U 92080B   17347.98244038  .00000047  00000-0  33284-5 0  9991
2 22237  82.5114 310.4624 0019216 342.1392  79.4880 14.78339774350009
Epoch (UTC): 13 December 2017 23:34:42
Eccentricity: 0.0019216
inclination: 82.5114°
perigee height: 621 km
apogee height: 648 km
right ascension of ascending node: 310.4624°
argument of perigee: 342.1392°
revolutions per day: 14.78339774
mean anomaly at epoch: 79.4880°
orbit number at epoch: 35000

The dashed part of the orbit path shows where the satellite is in the earth's shadow,  

DLR